Flag for U.S.A. Weather past 2 weeks in Seattle, Washington, U.S.A.

Now
63 °F

Broken clouds.


Feels Like: 63 °F
Forecast: 52 / 63 °F
Wind: 10 mph from Southwest

Location: Seattle Boeing Field

Current Time: Mar 30, 2015 at 1:48:40 PM

Latest Report: Mar 30, 2015 at 12:53 PM


Visibility: 10 mi

Pressure: 30.02 "Hg

Humidity: 54%

Dew point: 46 °F

Location of SeattleLocation

Historic Weather in Seattle — Graph

°F

Seattle temperature yesterday

Maximum temperature yesterday: 63 °F (at 4:53 PM)
Minimum temperature yesterday: 51 °F (at 5:53 AM)
Average temperature yesterday: 57 °F

Past Weeks' High & Low Weather Summary

 TemperatureHumidityPressure
High71 °F (Mar 26, 3:53 PM)89% (Mar 23, 3:53 AM)30.35 "Hg (Mar 23, 3:53 AM)
Low43 °F (Mar 23, 7:00 AM)39% (Mar 26, 4:53 PM)29.62 "Hg (Mar 15, 4:53 PM)
Average54 °F70%30.10 "Hg
* Reported Mar 15 12:53 PM — Mar 30 12:53 PM, Seattle, Weather by CustomWeather, © 2015

Note: Actual official high and low records may vary slightly from our data, if they occured in-between our weather recording intervals... More about our weather records

Advertising

Seattle weather history for previous 24 hours

 ConditionsComfort  
Time TempWeatherWind HumidityBarometerVisibility
12:53 PM
Mon, Mar 30
63 °FBroken clouds.10 mph54%30.02 "Hg10 mi
11:53 AM61 °FBroken clouds.8 mph62%30.05 "Hg10 mi
10:53 AM59 °FBroken clouds.8 mph67%30.07 "Hg10 mi
9:53 AM58 °FScattered clouds.8 mph70%30.08 "Hg10 mi
8:53 AM57 °FBroken clouds.7 mph72%30.08 "Hg10 mi
7:53 AM56 °FPartly sunny.7 mph75%30.08 "Hg10 mi
6:53 AM56 °FPassing clouds.7 mph75%30.08 "Hg10 mi
5:53 AM55 °FPassing clouds.8 mph77%30.09 "Hg10 mi
4:53 AM57 °FOvercast.6 mph72%30.10 "Hg10 mi
3:53 AM57 °FOvercast.6 mph72%30.11 "Hg10 mi
2:53 AM56 °FPassing clouds.3 mph75%30.12 "Hg10 mi
1:53 AM57 °FOvercast.5 mph74%30.12 "Hg10 mi
12:53 AM57 °FMostly cloudy.7 mph74%30.14 "Hg10 mi
11:53 PM
Sun, Mar 29
58 °FOvercast.7 mph72%30.15 "Hg10 mi
10:53 PM58 °FOvercast.6 mph70%30.16 "Hg10 mi
9:53 PM58 °FOvercast.7 mph70%30.16 "Hg10 mi
8:53 PM60 °FMostly cloudy.7 mph58%30.14 "Hg10 mi
7:53 PM59 °FCloudy.5 mph62%30.16 "Hg10 mi
6:53 PM61 °FMostly cloudy.5 mph58%30.17 "Hg10 mi
5:53 PM62 °FOvercast.5 mph54%30.18 "Hg10 mi
4:53 PM63 °FMore clouds than sun.8 mph50%30.19 "Hg10 mi
3:53 PM62 °FOvercast.8 mph52%30.20 "Hg10 mi
2:53 PM62 °FOvercast.6 mph50%30.21 "Hg10 mi
1:53 PM61 °FBroken clouds.10 mph50%30.23 "Hg10 mi
Weather by CustomWeather, © 2015

See weather overviewHow to use our weather pages